Wind_Speed
12 7 5 13 23 33 41 48 51 52 54 54 57 66 81 92 99 107 114 116 116 114 110 106 102 96 91 87 83 78 73 70 68 68 67 65 65 63
10 6 5 9 17 25 34 41 46 48 50 53 54 60 72 84 92 99 107 113 115 114 111 108 104 99 93 89 85 80 74 71 70 68 68 67 66 64
11 8 6 8 13 20 27 34 40 44 46 49 51 54 64 76 85 92 101 108 113 114 112 109 105 101 96 91 86 82 76 73 71 69 68 66 66 65
12 10 8 9 11 16 22 28 34 39 42 44 48 50 58 69 78 86 94 103 110 113 112 109 106 103 98 93 88 83 77 71 69 70 68 67 66 65
13 10 9 9 11 13 18 23 29 33 38 40 44 47 53 63 72 81 89 97 106 111 111 109 107 104 100 95 91 87 81 73 68 67 67 66 65 65
13 10 9 9 10 12 15 20 24 29 33 37 40 43 50 58 67 76 84 93 101 108 110 109 107 104 102 97 93 89 84 77 69 64 64 62 62 62
14 9 7 7 9 11 14 17 21 25 29 33 37 41 47 55 64 72 79 88 97 105 108 109 107 104 101 99 96 91 87 80 71 64 60 57 56 57
15 9 5 5 7 9 11 14 18 22 26 30 34 39 45 53 61 68 76 83 92 101 105 107 106 102 100 99 97 93 88 83 74 65 58 53 51 52
16 9 4 2 4 7 9 12 15 19 23 27 32 37 44 51 58 66 73 79 87 96 102 103 102 100 97 96 95 93 89 85 79 70 63 57 52 49
19 12 7 2 2 5 7 9 12 16 21 25 30 36 43 50 56 62 69 75 80 90 98 100 99 96 92 89 90 90 88 83 77 71 66 60 52 48
21 15 9 5 2 3 5 8 10 14 18 23 29 35 42 49 55 60 65 71 76 83 93 96 95 92 89 85 84 86 84 80 75 69 65 61 57 51
24 17 11 8 5 4 5 7 9 12 16 22 28 34 41 47 52 57 62 67 71 77 88 92 93 90 86 82 78 79 80 76 72 68 64 60 58 54
26 19 14 10 7 6 6 7 8 10 14 20 27 34 40 45 50 53 58 62 67 72 81 88 89 88 85 81 77 76 75 73 69 66 64 60 57 55
28 21 15 11 9 7 7 7 8 10 14 19 26 32 38 43 47 49 53 57 62 67 73 81 85 85 82 78 75 74 73 72 68 64 62 60 59 56
30 22 16 11 9 8 7 8 9 11 14 19 25 31 36 40 43 46 48 51 56 62 69 76 79 81 80 77 74 74 73 71 68 65 62 60 59 58
33 24 17 12 9 8 8 8 10 12 15 19 25 30 35 38 41 43 45 47 50 56 63 70 75 77 77 75 72 71 73 72 69 66 62 61 60 58
37 29 20 13 9 7 7 8 10 12 15 19 23 28 32 36 38 41 43 44 46 51 57 64 71 74 75 73 71 71 72 72 71 67 63 61 60 58
37 32 23 15 10 6 6 8 10 12 15 18 22 26 30 33 36 39 42 43 45 49 54 60 66 70 72 72 72 70 70 70 69 67 65 62 60 59
36 33 26 18 11 6 5 7 9 12 15 17 20 24 28 31 34 37 40 42 45 48 51 56 61 66 69 71 71 69 67 67 67 66 64 62 59 56
34 32 28 22 14 7 3 5 9 12 14 17 19 22 25 28 31 34 37 41 44 47 50 54 57 62 64 66 69 69 67 65 65 65 64 63 61 57
33 32 29 24 18 10 4 3 8 11 14 16 18 20 23 25 28 31 35 39 43 46 50 54 57 59 61 63 65 68 68 66 65 64 65 65 63 60
33 31 29 26 21 14 7 0 6 11 14 16 18 19 21 23 26 29 33 37 41 45 49 55 59 60 61 63 63 65 66 65 63 63 62 63 62 59
31 31 30 27 24 19 11 4 4 9 14 17 19 20 21 22 24 27 30 34 39 44 49 54 59 61 62 64 64 63 63 63 63 63 62 61 59 58
Wind_Direction
357 347 272 230 221 219 219 219 220 222 226 229 226 221 218 214 212 211 209 207 206 206 206 207 207 208 208 209 211 214 217 218 220 221 222 224 225 225
338 326 281 238 224 220 219 219 219 221 224 228 227 222 217 214 212 211 209 207 205 205 205 206 206 207 207 207 209 212 215 218 220 222 224 225 227 227
318 302 274 242 227 221 219 219 219 220 222 226 227 223 217 213 211 210 208 206 204 204 204 205 206 206 206 207 207 210 213 216 218 220 222 224 226 227
308 294 270 245 230 222 219 219 219 219 221 225 227 222 216 212 209 208 207 206 204 203 203 204 205 206 206 206 206 208 210 213 216 218 220 223 226 226
310 294 274 250 232 223 220 218 217 218 220 223 225 221 214 209 207 206 206 205 204 203 203 204 205 206 206 206 206 207 209 212 214 216 217 220 222 224
321 300 277 252 233 223 218 216 216 217 218 221 222 218 211 206 204 204 203 203 203 202 202 203 205 206 206 206 206 207 209 212 214 214 214 217 219 220
335 314 282 253 232 220 214 212 213 214 215 216 218 213 206 202 201 201 201 202 202 202 202 203 204 206 207 207 206 207 208 210 213 215 215 216 216 215
348 334 298 253 227 216 210 208 210 210 211 212 212 208 201 198 198 198 199 200 201 201 201 202 204 206 208 209 208 208 210 211 213 215 218 217 215 214
2 356 339 269 226 211 205 205 205 204 205 207 206 202 197 194 194 196 197 199 201 201 201 202 204 206 208 210 210 210 211 214 216 218 219 221 221 218
13 14 13 9 204 198 197 195 195 197 200 201 200 196 192 190 191 193 196 198 199 200 201 202 203 205 207 210 212 211 213 215 217 221 223 225 225 221
18 21 27 42 80 143 170 178 184 190 194 195 194 190 187 187 188 191 193 196 198 199 201 202 202 204 206 208 212 213 213 215 217 220 222 224 224 223
21 26 34 48 70 102 132 154 168 179 186 189 189 186 184 184 186 189 192 194 196 198 200 201 201 203 205 207 210 212 213 214 216 217 218 220 221 221
22 27 36 49 68 92 117 137 153 167 178 184 184 182 181 182 184 187 190 194 196 198 200 201 201 202 204 206 208 210 211 211 212 213 214 215 216 218
22 26 35 49 67 85 106 126 143 158 170 178 179 179 178 179 182 185 189 192 195 197 199 201 202 202 203 204 205 208 210 210 210 210 211 211 212 214
23 27 34 47 66 84 100 119 136 152 164 173 175 176 175 176 179 183 186 189 194 197 200 201 201 201 203 204 204 206 208 209 209 209 209 210 211 212
24 27 32 44 62 83 102 117 133 149 161 169 173 174 174 175 177 181 184 187 191 195 199 200 200 200 201 203 203 205 207 209 210 210 210 210 211 211
24 26 29 37 54 80 105 123 136 149 158 165 171 173 174 175 177 179 182 185 188 191 196 199 199 200 201 201 202 204 206 207 209 210 210 210 210 211
23 24 27 33 46 74 111 132 144 151 160 165 170 174 176 177 179 181 182 184 186 189 193 197 199 201 202 202 201 202 204 205 207 210 211 211 212 211
21 23 25 30 39 60 112 145 154 159 164 168 172 175 179 181 182 183 185 186 186 188 191 195 199 202 203 203 203 204 203 205 207 210 212 212 212 213
19 21 23 26 32 44 91 159 170 172 173 174 176 178 181 184 187 188 189 189 188 189 190 193 197 201 204 205 207 207 205 206 208 210 212 214 215 214
17 19 21 22 25 30 47 162 185 188 186 184 183 184 185 187 190 193 194 193 191 190 190 191 192 196 200 204 207 208 208 209 210 211 214 215 216 217
15 17 18 20 21 21 23 104 196 197 197 193 190 190 190 192 193 195 196 196 195 194 192 190 191 193 197 201 204 207 209 210 211 211 211 214 216 218
13 15 17 18 18 17 14 359 220 209 206 203 199 196 195 195 196 197 197 197 198 197 195 192 190 191 193 196 200 203 206 208 210 213 214 214 215 216
Height
5283 5280 5279 5280 5283 5289 5296 5305 5315 5324 5332 5341 5350 5360 5374 5392 5412 5433 5457 5483 5509 5533 5557 5579 5599 5618 5635 5652 5667 5680 5692 5704 5716 5726 5736 5745 5754 5762
5285 5282 5281 5281 5283 5286 5291 5298 5307 5316 5324 5331 5340 5350 5363 5380 5399 5420 5443 5468 5493 5518 5541 5564 5584 5603 5621 5638 5654 5669 5681 5692 5704 5715 5725 5734 5744 5752
5285 5282 5281 5280 5282 5284 5288 5294 5301 5309 5317 5323 5331 5341 5354 5369 5387 5407 5429 5453 5477 5502 5526 5549 5570 5589 5608 5625 5641 5657 5669 5681 5691 5702 5713 5723 5733 5742
5284 5281 5280 5280 5280 5282 5286 5290 5296 5303 5310 5317 5324 5334 5345 5360 5378 5397 5418 5440 5464 5488 5513 5535 5556 5576 5594 5612 5629 5644 5659 5670 5679 5690 5701 5712 5722 5730
5282 5280 5278 5278 5279 5281 5283 5287 5293 5298 5305 5311 5318 5327 5338 5352 5370 5388 5408 5429 5452 5476 5500 5522 5543 5563 5581 5599 5616 5632 5647 5659 5670 5679 5690 5700 5710 5720
5280 5278 5277 5277 5277 5279 5282 5285 5289 5294 5300 5306 5313 5322 5333 5346 5362 5380 5399 5419 5441 5464 5487 5509 5530 5550 5568 5587 5605 5620 5636 5648 5659 5669 5679 5689 5699 5710
5278 5276 5275 5275 5276 5277 5280 5283 5287 5291 5296 5302 5308 5317 5328 5341 5356 5373 5392 5412 5433 5454 5477 5499 5520 5540 5557 5574 5591 5608 5624 5637 5649 5659 5669 5679 5689 5700
5278 5276 5275 5275 5276 5277 5279 5281 5284 5288 5293 5298 5305 5313 5324 5336 5351 5368 5385 5403 5424 5445 5467 5488 5508 5528 5546 5563 5581 5597 5612 5626 5638 5649 5659 5671 5681 5691
5280 5277 5276 5276 5276 5277 5279 5281 5284 5287 5291 5296 5302 5310 5321 5333 5348 5364 5380 5398 5418 5438 5459 5480 5500 5520 5537 5553 5570 5586 5601 5615 5627 5639 5652 5663 5674 5684
5283 5280 5278 5277 5277 5278 5280 5281 5284 5287 5290 5295 5301 5309 5319 5332 5346 5361 5377 5394 5412 5432 5452 5472 5492 5511 5528 5544 5560 5576 5591 5606 5619 5631 5643 5656 5667 5677
5288 5284 5281 5280 5280 5280 5281 5283 5285 5288 5291 5296 5301 5309 5319 5331 5344 5359 5374 5389 5407 5425 5443 5464 5484 5502 5520 5536 5549 5566 5582 5597 5611 5624 5636 5648 5660 5669
5293 5289 5286 5284 5284 5284 5285 5286 5288 5290 5293 5297 5303 5310 5320 5331 5343 5357 5371 5386 5401 5419 5436 5455 5475 5493 5511 5526 5540 5557 5574 5589 5603 5616 5629 5640 5651 5661
5299 5295 5291 5289 5288 5288 5289 5290 5291 5293 5296 5300 5305 5313 5321 5332 5344 5356 5369 5383 5398 5414 5431 5449 5467 5485 5502 5519 5533 5549 5566 5582 5596 5609 5621 5632 5643 5655
5306 5301 5297 5295 5294 5293 5293 5294 5296 5298 5300 5304 5309 5316 5324 5334 5345 5357 5369 5381 5395 5411 5426 5442 5461 5479 5496 5512 5527 5541 5557 5573 5587 5601 5613 5624 5635 5646
5313 5307 5303 5301 5299 5299 5299 5300 5301 5303 5305 5309 5314 5320 5328 5337 5347 5357 5369 5380 5393 5408 5422 5438 5456 5473 5490 5506 5520 5534 5549 5564 5579 5592 5605 5616 5628 5638
5320 5313 5309 5307 5305 5304 5305 5305 5306 5308 5310 5314 5319 5325 5332 5340 5349 5359 5369 5380 5392 5405 5419 5434 5451 5467 5483 5498 5513 5527 5542 5557 5571 5585 5597 5609 5620 5631
5326 5320 5315 5312 5311 5310 5310 5311 5312 5314 5316 5319 5324 5329 5336 5343 5351 5360 5370 5380 5391 5403 5416 5430 5445 5461 5476 5491 5506 5520 5535 5550 5564 5577 5589 5600 5611 5623
5333 5327 5322 5318 5316 5315 5315 5316 5317 5319 5321 5324 5328 5333 5339 5346 5353 5362 5371 5380 5390 5401 5413 5426 5440 5455 5469 5484 5498 5513 5526 5541 5555 5568 5581 5593 5603 5614
5340 5334 5328 5324 5321 5320 5319 5320 5321 5323 5326 5329 5332 5337 5342 5348 5355 5362 5370 5379 5388 5399 5410 5422 5435 5449 5463 5477 5491 5505 5520 5533 5546 5559 5571 5584 5595 5605
5346 5340 5334 5329 5325 5324 5323 5324 5325 5327 5329 5332 5335 5339 5344 5349 5355 5362 5369 5377 5386 5396 5406 5418 5430 5444 5458 5472 5486 5499 5511 5524 5537 5550 5562 5573 5585 5596
5351 5345 5339 5333 5329 5327 5326 5326 5327 5328 5331 5333 5337 5340 5344 5349 5355 5361 5367 5375 5383 5392 5402 5414 5425 5438 5451 5464 5477 5491 5503 5515 5529 5542 5555 5566 5577 5587
5355 5349 5343 5337 5333 5329 5328 5327 5328 5329 5331 5334 5337 5340 5344 5348 5353 5359 5365 5372 5379 5388 5398 5408 5420 5431 5444 5457 5470 5483 5495 5508 5519 5531 5544 5558 5569 5581
5358 5352 5346 5340 5336 5332 5329 5328 5327 5328 5330 5333 5336 5339 5343 5347 5351 5356 5362 5368 5375 5383 5392 5402 5413 5425 5437 5449 5462 5475 5487 5500 5512 5523 5534 5546 5558 5569